Vorticity
nan nan nan nan nan nan nan nan nan nan nan nan nan nan nan nan nan nan nan nan nan nan nan nan nan nan nan nan nan nan nan nan nan nan nan nan nan nan nan nan nan nan nan
nan 10 9 8 10 11 10 10 10 9 9 10 11 12 12 12 13 10 10 9 10 8 9 9 8 9 9 7 7 8 9 8 9 6 6 11 10 10 10 10 9 10 nan
nan 7 7 8 9 9 8 11 11 10 9 9 9 9 11 13 13 12 11 10 10 12 12 9 9 8 11 10 7 8 9 8 9 10 7 7 10 10 11 11 11 10 nan
nan 7 8 9 9 10 10 9 9 10 10 10 9 9 9 11 11 13 15 12 12 9 7 7 9 9 8 8 14 10 7 8 8 8 8 9 10 10 11 10 10 12 nan
nan 8 9 9 10 10 10 10 10 10 11 10 9 9 9 9 9 11 12 14 14 8 5 7 10 9 7 5 4 9 7 6 6 8 8 9 8 11 10 10 10 10 nan
nan 9 10 10 10 10 10 10 10 10 13 12 10 9 8 8 12 12 9 12 13 10 8 9 11 10 10 10 5 7 4 5 6 7 8 8 8 7 11 10 10 9 nan
nan 9 10 10 10 10 10 11 11 12 13 12 10 10 8 9 11 14 11 9 13 12 9 8 9 11 11 9 12 13 18 10 5 5 8 6 9 10 8 10 9 9 nan
nan 10 10 9 8 9 10 10 11 12 12 12 11 10 9 10 11 13 15 15 13 11 12 9 7 7 6 8 7 7 15 18 12 7 10 10 9 11 10 11 9 6 nan
nan 11 10 8 9 9 10 10 10 9 11 14 12 11 9 10 16 13 12 13 14 15 13 12 9 4 8 10 7 11 11 16 16 14 10 11 12 8 4 7 10 9 nan
nan 12 9 8 10 10 10 12 10 6 11 14 14 14 13 16 19 14 4 9 13 16 16 15 12 10 12 9 6 11 14 18 9 10 11 15 13 11 8 3 8 8 nan
nan 11 9 10 10 10 10 11 9 12 15 12 12 12 13 14 14 18 15 8 10 11 12 13 23 17 11 3 6 1 19 19 13 10 10 9 12 12 9 11 10 9 nan
nan 10 9 9 10 10 10 8 11 15 12 10 11 12 12 10 10 13 17 12 7 11 10 12 18 22 26 12 12 18 16 8 10 12 11 11 10 9 11 12 9 8 nan
nan 10 10 10 10 9 9 10 13 12 12 11 10 10 10 10 7 9 14 19 13 7 10 13 17 22 22 30 17 17 10 11 12 11 10 11 12 12 10 10 11 10 nan
nan 10 10 10 11 11 11 10 11 10 11 11 11 10 9 9 9 11 13 15 16 12 12 11 8 8 8 11 15 16 16 15 13 10 10 10 13 11 9 10 11 11 nan
nan 11 11 10 10 10 11 10 11 10 9 8 7 9 11 10 10 9 10 10 14 13 11 10 10 8 9 9 10 10 11 13 12 13 13 10 9 9 10 10 10 12 nan
nan 11 12 11 11 11 7 16 15 9 7 8 11 12 10 8 7 8 8 13 13 15 16 10 11 11 11 10 10 9 11 11 11 12 11 11 11 10 10 10 10 12 nan
nan 9 11 10 9 9 11 10 12 18 11 11 10 11 13 13 8 6 6 8 12 17 13 12 12 12 11 11 11 11 12 11 11 11 11 12 11 12 10 9 10 10 nan
nan 9 8 8 10 11 12 11 14 13 13 15 13 7 9 9 7 6 10 13 12 12 13 11 10 11 12 11 11 12 12 11 11 12 11 12 11 11 11 12 12 12 nan
nan 8 7 10 13 10 10 11 11 14 14 10 10 13 14 10 9 9 14 15 12 11 12 12 11 10 11 11 11 11 11 12 11 11 12 12 11 10 11 11 13 13 nan
nan 15 9 8 11 13 12 12 12 12 13 12 9 11 9 11 12 13 15 13 12 11 10 10 10 11 11 11 11 10 10 10 11 11 11 10 11 12 11 11 10 9 nan
nan 12 16 18 13 12 13 14 9 11 12 12 12 13 11 7 8 8 10 13 13 11 10 10 10 10 10 10 10 10 10 10 10 11 10 11 11 11 11 10 11 11 nan
nan 11 12 15 17 16 12 12 16 15 12 11 11 13 12 8 9 10 10 11 12 9 11 11 10 10 10 10 10 9 9 10 10 11 11 10 10 10 10 10 10 10 nan
nan 13 16 17 15 17 14 12 15 18 14 12 10 11 11 10 9 9 11 13 13 12 12 11 10 10 12 11 11 10 11 12 11 12 13 12 10 11 12 11 10 10 nan
nan 13 15 14 15 12 13 14 11 16 19 18 18 15 13 13 12 13 13 14 13 11 12 12 12 13 11 11 11 13 14 14 13 13 12 11 11 11 11 12 13 11 nan
nan 12 11 12 12 12 11 11 14 12 15 16 19 19 15 13 14 16 21 20 13 14 14 11 13 16 14 10 11 15 15 11 8 9 10 12 13 9 8 11 11 11 nan
nan nan nan nan nan nan nan nan nan nan nan nan nan nan nan nan nan nan nan nan nan nan nan nan nan nan nan nan nan nan nan nan nan nan nan nan nan nan nan nan nan nan nan
CAPE
1066 1209 1110 1136 1118 1534 1550 1567 1678 1769 1961 2221 2338 2235 1868 940 1526 1654 1699 1553 1562 1655 1451 1394 1718 1658 1542 1453 1193 845 515 234 351 262 11 4 50 112 227 315 126 10 0
685 869 918 1115 969 889 874 1018 1137 1327 1580 1773 1967 2173 2268 2001 829 1462 1581 1719 1703 1690 1717 1661 1653 1832 1788 1697 1604 1166 618 393 388 433 173 104 119 125 146 164 219 363 197
585 799 563 488 519 632 648 638 774 841 864 1262 1579 1571 1714 1601 1539 1119 1168 1304 1428 1718 1763 1724 1812 1846 1823 1873 1775 1584 906 587 365 497 393 158 166 114 118 59 102 124 182
806 598 527 421 347 341 478 495 559 642 757 865 1031 1128 1223 1435 1387 1447 1637 1550 1561 859 248 169 204 410 642 968 1431 1536 1094 725 481 488 473 389 154 154 112 140 150 29 135
643 505 431 338 356 440 537 539 512 573 740 903 870 718 802 972 1203 1317 1645 1370 933 637 261 145 106 84 84 149 375 855 1026 722 904 812 764 326 249 208 250 123 178 48 43
461 370 303 333 392 470 476 501 514 549 641 775 735 689 741 877 988 1096 1103 1352 564 420 339 112 0 17 0 0 6 25 207 957 1054 812 747 569 478 272 102 109 78 66 60
543 452 348 313 377 315 289 328 368 424 573 677 435 602 650 723 899 1031 545 806 951 377 329 80 43 63 4 22 27 84 57 328 860 1003 884 660 453 239 128 82 43 19 12
421 397 311 291 49 29 60 99 121 266 503 584 606 505 579 642 657 692 238 226 673 506 363 146 5 13 36 20 46 38 238 548 647 788 831 736 402 194 168 126 82 23 4
259 377 189 36 32 37 49 38 67 19 77 281 484 489 442 495 588 492 26 1 362 283 168 87 26 0 0 0 29 33 2 607 792 374 779 396 403 395 244 201 226 148 88
154 129 32 0 7 0 0 5 19 16 50 156 365 427 406 419 528 423 1 7 156 318 156 0 0 0 0 0 0 40 352 651 678 118 125 118 88 112 169 261 61 84 0
54 3 0 0 0 0 0 0 25 24 29 69 215 241 116 4 27 0 1 1 39 76 91 71 178 21 0 0 0 4 112 252 288 255 247 226 45 0 2 3 27 11 0
0 0 0 0 0 0 0 3 16 34 72 7 1 25 107 25 0 0 1 1 1 13 162 183 116 61 21 0 0 0 249 104 266 371 319 188 116 39 15 14 0 0 0
0 0 0 0 0 0 5 15 15 31 2 27 8 5 11 0 0 0 1 1 1 0 2 5 1 2 2 1 4 1 1 176 311 249 294 250 134 53 11 1 0 0 0
0 0 0 0 0 0 17 39 32 0 0 0 23 0 0 0 0 0 0 0 1 1 1 0 1 1 0 0 1 1 82 266 346 338 210 9 1 1 1 0 1 1 0
0 0 0 0 0 0 15 11 0 0 0 0 0 0 0 0 0 0 1 1 1 1 1 1 2 1 1 1 1 1 1 11 29 4 6 1 1 1 1 1 0 0 0
0 0 0 0 0 0 3 25 0 1 1 0 0 0 0 0 0 1 0 2 1 1 1 1 3 5 1 1 1 1 1 1 0 0 0 0 1 1 1 1 0 0 0
0 0 1 0 0 0 0 17 17 0 1 0 0 1 1 0 0 0 1 1 2 0 1 1 1 0 1 0 0 0 0 1 0 0 0 0 0 0 0 1 0 0 0
0 29 23 31 22 10 8 11 4 13 2 3 0 0 0 0 0 0 1 1 0 0 0 23 5 0 0 0 0 0 0 0 0 0 0 0 0 0 0 0 0 0 1
7 10 0 30 32 20 20 13 2 0 5 0 0 0 1 1 1 0 0 0 1 2 0 0 0 0 0 0 0 0 0 0 0 0 1 0 0 5 3 1 0 0 0
46 22 8 25 34 34 33 12 21 10 24 7 0 2 0 0 0 0 0 6 19 12 0 0 0 0 0 0 0 0 0 0 0 0 1 0 2 4 4 1 0 0 0
43 40 33 31 1 2 0 0 5 12 33 75 28 0 0 0 0 1 24 13 40 20 1 0 0 0 0 0 0 0 0 0 0 0 0 0 0 0 0 0 0 0 0
0 1 0 0 2 5 1 1 0 33 93 174 127 46 0 0 0 6 7 7 15 6 1 4 2 2 1 0 0 0 0 0 0 0 0 0 0 0 0 0 0 0 0
0 0 2 0 0 0 0 0 0 4 51 85 103 88 5 0 0 2 8 12 5 3 1 0 12 22 0 0 1 6 12 0 1 0 0 0 0 0 0 0 0 0 0
0 0 0 0 0 16 0 4 1 3 0 0 67 103 40 0 0 1 11 33 10 1 1 0 0 14 9 6 22 9 4 19 1 0 0 0 0 0 0 0 0 0 0
0 0 0 0 0 0 0 0 0 0 0 0 2 0 0 0 0 0 0 48 36 37 23 0 0 21 34 39 0 2 0 0 0 0 0 0 0 0 0 0 0 0 0
2 0 0 0 0 0 0 0 0 0 0 0 0 0 0 0 0 0 0 1 0 0 0 0 0 9 0 0 0 0 0 0 0 0 0 0 0 0 0 0 0 0 0